| time (UTC) | temp F | wind direction | speed MPH | gust MPH | rain 1hr in | rain 24hr in | rain mn in | humidity % | barometer mb |
| 20260906224152 | 96 | 170 | 7.0 | 8.0 | 0.00 | 0.00 | 0.00 | 32 | 1010.7 |
| 20260906223649 | 97 | 118 | 6.0 | 7.0 | 0.00 | 0.00 | 0.00 | 32 | 1010.7 |
| 20260906223148 | 96 | 156 | 2.0 | 3.0 | 0.00 | 0.00 | 0.00 | 32 | 1010.9 |
| 20260906222646 | 96 | 133 | 2.0 | 1.0 | 0.00 | 0.00 | 0.00 | 33 | 1010.9 |
| 20260906222145 | 96 | 212 | 4.0 | 4.0 | 0.00 | 0.00 | 0.00 | 34 | 1011.0 |
| 20260906221643 | 96 | 176 | 10.0 | 13.0 | 0.00 | 0.00 | 0.00 | 33 | 1011.0 |
| 20260906221138 | 95 | 115 | 3.0 | 4.0 | 0.00 | 0.00 | 0.00 | 33 | 1010.9 |
| 20260906220634 | 93 | 98 | 0.0 | 0.0 | 0.00 | 0.00 | 0.00 | 36 | 1011.0 |
| 20260906220129 | 92 | 123 | 1.0 | 1.0 | 0.00 | 0.00 | 0.00 | 39 | 1011.1 |
| 20260906215628 | 91 | 151 | 2.0 | 3.0 | 0.00 | 0.00 | 0.00 | 39 | 1011.2 |
| 20260906215126 | 91 | 108 | 2.0 | 3.0 | 0.00 | 0.00 | 0.00 | 41 | 1011.0 |
| 20260906214626 | 90 | 124 | 1.0 | 1.0 | 0.00 | 0.00 | 0.00 | 41 | 1010.9 |
| 20260906214120 | 90 | 72 | 0.0 | 0.0 | 0.00 | 0.00 | 0.00 | 44 | 1011.0 |
| 20260906213619 | 88 | 83 | 4.0 | 4.0 | 0.00 | 0.00 | 0.00 | 44 | 1011.2 |
| 20260906213114 | 87 | 153 | 3.0 | 4.0 | 0.00 | 0.00 | 0.00 | 49 | 1011.2 |
| 20260906212612 | 88 | 75 | 3.0 | 4.0 | 0.00 | 0.00 | 0.00 | 51 | 1011.3 |
| 20260906212108 | 93 | 90 | 6.0 | 7.0 | 0.00 | 0.00 | 0.00 | 44 | 1011.5 |
| 20260906211607 | 95 | 170 | 6.0 | 14.0 | 0.00 | 0.00 | 0.00 | 35 | 1011.3 |
| 20260906211102 | 96 | 154 | 12.0 | 14.0 | 0.00 | 0.00 | 0.00 | 34 | 1011.4 |
| 20260906210557 | 97 | 165 | 3.0 | 4.0 | 0.00 | 0.00 | 0.00 | 33 | 1011.4 |
| 20260906210052 | 97 | 126 | 2.0 | 3.0 | 0.00 | 0.00 | 0.00 | 33 | 1011.4 |
| 20260906205548 | 96 | 161 | 5.0 | 13.0 | 0.00 | 0.00 | 0.00 | 33 | 1011.8 |
| 20260906205044 | 95 | 225 | 3.0 | 4.0 | 0.00 | 0.00 | 0.00 | 35 | 1011.7 |
| 20260906204543 | 95 | 92 | 4.0 | 6.0 | 0.00 | 0.00 | 0.00 | 35 | 1011.8 |
| 20260906204038 | 95 | 171 | 6.0 | 7.0 | 0.00 | 0.00 | 0.00 | 35 | 1011.9 |
| 20260906203537 | 95 | 145 | 4.0 | 7.0 | 0.00 | 0.00 | 0.00 | 35 | 1011.9 |
| 20260906203033 | 96 | 177 | 9.0 | 11.0 | 0.00 | 0.00 | 0.00 | 34 | 1011.9 |
| 20260906202529 | 98 | 145 | 7.0 | 7.0 | 0.00 | 0.00 | 0.00 | 33 | 1011.8 |
| 20260906202024 | 98 | 118 | 7.0 | 13.0 | 0.00 | 0.00 | 0.00 | 33 | 1011.9 |
| 20260906201519 | 97 | 149 | 8.0 | 8.0 | 0.00 | 0.00 | 0.00 | 33 | 1011.9 |
| 20260906201018 | 95 | 227 | 6.0 | 7.0 | 0.00 | 0.00 | 0.00 | 34 | 1012.1 |
| 20260906200514 | 95 | 211 | 9.0 | 11.0 | 0.00 | 0.00 | 0.00 | 35 | 1012.0 |
| 20260906200010 | 96 | 82 | 2.0 | 1.0 | 0.00 | 0.00 | 0.00 | 34 | 1012.0 |
| 20260906195505 | 97 | 93 | 6.0 | 7.0 | 0.00 | 0.00 | 0.00 | 33 | 1012.1 |
| 20260906195001 | 96 | 126 | 6.0 | 7.0 | 0.00 | 0.00 | 0.00 | 33 | 1012.1 |
| 20260906194457 | 97 | 102 | 3.0 | 3.0 | 0.00 | 0.00 | 0.00 | 33 | 1012.1 |
| 20260906193952 | 96 | 81 | 5.0 | 7.0 | 0.00 | 0.00 | 0.00 | 34 | 1012.2 |
| 20260906193447 | 95 | 162 | 7.0 | 8.0 | 0.00 | 0.00 | 0.00 | 36 | 1012.2 |
| 20260906192943 | 96 | 114 | 4.0 | 4.0 | 0.00 | 0.00 | 0.00 | 35 | 1012.3 |
| 20260906192443 | 98 | 163 | 5.0 | 7.0 | 0.00 | 0.00 | 0.00 | 33 | 1012.5 |
| 20260906191942 | 98 | 180 | 4.0 | 6.0 | 0.00 | 0.00 | 0.00 | 32 | 1012.3 |
| 20260906191437 | 99 | 162 | 9.0 | 10.0 | 0.00 | 0.00 | 0.00 | 30 | 1012.7 |
| 20260906190937 | 98 | 212 | 3.0 | 3.0 | 0.00 | 0.00 | 0.00 | 31 | 1012.6 |
| 20260906190435 | 98 | 172 | 3.0 | 6.0 | 0.00 | 0.00 | 0.00 | 32 | 1012.7 |
| 20260906185931 | 98 | 169 | 6.0 | 6.0 | 0.00 | 0.00 | 0.00 | 32 | 1012.7 |
| 20260906185430 | 97 | 178 | 3.0 | 4.0 | 0.00 | 0.00 | 0.00 | 32 | 1012.6 |
| 20260906184929 | 96 | 185 | 7.0 | 10.0 | 0.00 | 0.00 | 0.00 | 34 | 1012.8 |
| 20260906184424 | 96 | 105 | 1.0 | 1.0 | 0.00 | 0.00 | 0.00 | 34 | 1012.8 |
| 20260906183919 | 96 | 162 | 6.0 | 10.0 | 0.00 | 0.00 | 0.00 | 34 | 1013.0 |
| 20260906183416 | 95 | 346 | 2.0 | 3.0 | 0.00 | 0.00 | 0.00 | 35 | 1013.2 |
| 20260906182910 | 93 | 169 | 10.0 | 13.0 | 0.00 | 0.00 | 0.00 | 38 | 1013.1 |
| 20260906182406 | 93 | 177 | 4.0 | 6.0 | 0.00 | 0.00 | 0.00 | 37 | 1013.4 |
| 20260906181901 | 94 | 157 | 2.0 | 3.0 | 0.00 | 0.00 | 0.00 | 36 | 1013.3 |
| 20260906181357 | 96 | 114 | 4.0 | 6.0 | 0.00 | 0.00 | 0.00 | 34 | 1013.3 |
| 20260906180853 | 95 | 92 | 4.0 | 4.0 | 0.00 | 0.00 | 0.00 | 34 | 1013.1 |
| 20260906180348 | 93 | 165 | 8.0 | 10.0 | 0.00 | 0.00 | 0.00 | 36 | 1013.6 |
| 20260906175844 | 93 | 83 | 4.0 | 4.0 | 0.00 | 0.00 | 0.00 | 36 | 1013.6 |
| 20260906175340 | 91 | 65 | 4.0 | 6.0 | 0.00 | 0.00 | 0.00 | 39 | 1013.8 |
| 20260906174839 | 91 | 145 | 3.0 | 4.0 | 0.00 | 0.00 | 0.00 | 39 | 1013.9 |
| 20260906174339 | 92 | 90 | 3.0 | 4.0 | 0.00 | 0.00 | 0.00 | 39 | 1013.9 |
| 20260906173834 | 92 | 175 | 4.0 | 4.0 | 0.00 | 0.00 | 0.00 | 38 | 1014.1 |
| 20260906173330 | 93 | 162 | 5.0 | 7.0 | 0.00 | 0.00 | 0.00 | 38 | 1014.1 |
| 20260906172828 | 94 | 155 | 7.0 | 8.0 | 0.00 | 0.00 | 0.00 | 36 | 1014.0 |
| 20260906172325 | 94 | 164 | 5.0 | 8.0 | 0.00 | 0.00 | 0.00 | 36 | 1014.0 |
| 20260906171819 | 93 | 78 | 5.0 | 6.0 | 0.00 | 0.00 | 0.00 | 37 | 1014.3 |
| 20260906171314 | 91 | 97 | 0.0 | 1.0 | 0.00 | 0.00 | 0.00 | 39 | 1014.3 |
| 20260906170810 | 90 | 58 | 0.0 | 0.0 | 0.00 | 0.00 | 0.00 | 41 | 1014.4 |
| 20260906170306 | 90 | 217 | 6.0 | 6.0 | 0.00 | 0.00 | 0.00 | 42 | 1014.2 |
| 20260906165802 | 89 | 266 | 1.0 | 1.0 | 0.00 | 0.00 | 0.00 | 42 | 1014.5 |
| 20260906165301 | 89 | 272 | 3.0 | 3.0 | 0.00 | 0.00 | 0.00 | 44 | 1014.5 |
| 20260906164801 | 89 | 266 | 5.0 | 7.0 | 0.00 | 0.00 | 0.00 | 44 | 1014.5 |
| 20260906164256 | 89 | 244 | 3.0 | 4.0 | 0.00 | 0.00 | 0.00 | 45 | 1014.5 |
| 20260906163752 | 89 | 61 | 2.0 | 3.0 | 0.00 | 0.00 | 0.00 | 45 | 1014.5 |
| 20260906163249 | 91 | 18 | 4.0 | 4.0 | 0.00 | 0.00 | 0.00 | 43 | 1014.4 |
| 20260906162746 | 90 | 85 | 0.0 | 0.0 | 0.00 | 0.00 | 0.00 | 44 | 1014.5 |
| 20260906162240 | 90 | 305 | 2.0 | 3.0 | 0.00 | 0.00 | 0.00 | 45 | 1014.6 |
| 20260906161740 | 91 | 230 | 2.0 | 3.0 | 0.00 | 0.00 | 0.00 | 44 | 1014.6 |
| 20260906161239 | 90 | 107 | 0.0 | 1.0 | 0.00 | 0.00 | 0.00 | 45 | 1014.7 |
| 20260906160738 | 90 | 56 | 0.0 | 1.0 | 0.00 | 0.00 | 0.00 | 45 | 1014.7 |
| 20260906160238 | 90 | 62 | 0.0 | 0.0 | 0.00 | 0.00 | 0.00 | 46 | 1014.7 |
| 20260906155735 | 90 | 16 | 5.0 | 6.0 | 0.00 | 0.00 | 0.00 | 46 | 1014.7 |
| 20260906155230 | 89 | 300 | 0.0 | 0.0 | 0.00 | 0.00 | 0.00 | 46 | 1014.6 |
| 20260906154726 | 89 | 237 | 5.0 | 6.0 | 0.00 | 0.00 | 0.00 | 47 | 1014.6 |
| 20260906154221 | 91 | 300 | 4.0 | 6.0 | 0.00 | 0.00 | 0.00 | 46 | 1014.5 |
| 20260906153719 | 91 | 307 | 4.0 | 4.0 | 0.00 | 0.00 | 0.00 | 45 | 1014.4 |
| 20260906153214 | 91 | 314 | 4.0 | 4.0 | 0.00 | 0.00 | 0.00 | 44 | 1014.6 |
| 20260906152708 | 90 | 189 | 4.0 | 6.0 | 0.00 | 0.00 | 0.00 | 44 | 1014.4 |
| 20260906152203 | 89 | 236 | 2.0 | 1.0 | 0.00 | 0.00 | 0.00 | 47 | 1014.4 |
| 20260906151658 | 89 | 293 | 6.0 | 7.0 | 0.00 | 0.00 | 0.00 | 47 | 1014.4 |
| 20260906151154 | 89 | 211 | 1.0 | 1.0 | 0.00 | 0.00 | 0.00 | 49 | 1014.2 |
| 20260906150649 | 88 | 273 | 2.0 | 3.0 | 0.00 | 0.00 | 0.00 | 50 | 1014.3 |
| 20260906150144 | 87 | 251 | 4.0 | 4.0 | 0.00 | 0.00 | 0.00 | 52 | 1014.3 |
| 20260906145642 | 86 | 286 | 2.0 | 3.0 | 0.00 | 0.00 | 0.00 | 53 | 1014.2 |
| 20260906145137 | 86 | 356 | 5.0 | 6.0 | 0.00 | 0.00 | 0.00 | 53 | 1014.0 |
| 20260906144632 | 86 | 331 | 4.0 | 6.0 | 0.00 | 0.00 | 0.00 | 53 | 1014.2 |
| 20260906144127 | 86 | 12 | 6.0 | 6.0 | 0.00 | 0.00 | 0.00 | 53 | 1014.0 |
| 20260906143626 | 86 | 313 | 4.0 | 4.0 | 0.00 | 0.00 | 0.00 | 53 | 1014.1 |
| 20260906143124 | 86 | 242 | 3.0 | 3.0 | 0.00 | 0.00 | 0.00 | 52 | 1014.1 |
| 20260906142623 | 85 | 14 | 3.0 | 4.0 | 0.00 | 0.00 | 0.00 | 54 | 1014.1 |
| 20260906142118 | 85 | 331 | 4.0 | 4.0 | 0.00 | 0.00 | 0.00 | 54 | 1014.3 |
| 20260906141617 | 85 | 260 | 7.0 | 8.0 | 0.00 | 0.00 | 0.00 | 56 | 1014.2 |
| 20260906141113 | 85 | 294 | 5.0 | 7.0 | 0.00 | 0.00 | 0.00 | 56 | 1014.1 |
| 20260906140611 | 84 | 323 | 2.0 | 3.0 | 0.00 | 0.00 | 0.00 | 56 | 1014.2 |
| 20260906140107 | 85 | 262 | 4.0 | 4.0 | 0.00 | 0.00 | 0.00 | 56 | 1014.0 |
| 20260906135603 | 85 | 335 | 0.0 | 0.0 | 0.00 | 0.00 | 0.00 | 53 | 1014.1 |
| 20260906135059 | 85 | 147 | 0.0 | 0.0 | 0.00 | 0.00 | 0.00 | 52 | 1014.0 |
| 20260906134555 | 85 | 140 | 0.0 | 0.0 | 0.00 | 0.00 | 0.00 | 52 | 1014.0 |
| 20260906134054 | 83 | 89 | 0.0 | 0.0 | 0.00 | 0.00 | 0.00 | 54 | 1014.1 |
| 20260906133550 | 81 | 65 | 0.0 | 0.0 | 0.00 | 0.00 | 0.00 | 57 | 1014.1 |
| 20260906133046 | 79 | 65 | 0.0 | 0.0 | 0.00 | 0.00 | 0.00 | 60 | 1014.1 |
| 20260906132546 | 78 | 64 | 0.0 | 0.0 | 0.00 | 0.00 | 0.00 | 62 | 1014.0 |
| 20260906132041 | 77 | 79 | 0.0 | 0.0 | 0.00 | 0.00 | 0.00 | 63 | 1014.1 |
| 20260906131537 | 76 | 195 | 0.0 | 0.0 | 0.00 | 0.00 | 0.00 | 65 | 1014.2 |
| 20260906131032 | 75 | 198 | 0.0 | 0.0 | 0.00 | 0.00 | 0.00 | 66 | 1014.1 |
| 20260906130531 | 75 | 198 | 0.0 | 0.0 | 0.00 | 0.00 | 0.00 | 68 | 1014.0 |
| 20260906130027 | 74 | 198 | 0.0 | 0.0 | 0.00 | 0.00 | 0.00 | 69 | 1014.0 |
| 20260906125524 | 73 | 199 | 0.0 | 0.0 | 0.00 | 0.00 | 0.00 | 70 | 1013.7 |
| 20260906125019 | 73 | 199 | 0.0 | 0.0 | 0.00 | 0.00 | 0.00 | 71 | 1013.7 |
| 20260906124514 | 72 | 200 | 0.0 | 0.0 | 0.00 | 0.00 | 0.00 | 72 | 1013.7 |
| 20260906124009 | 72 | 200 | 2.0 | 3.0 | 0.00 | 0.00 | 0.00 | 73 | 1013.8 |
| 20260906123508 | 71 | 200 | 0.0 | 0.0 | 0.00 | 0.00 | 0.00 | 73 | 1013.4 |
| 20260906123004 | 71 | 200 | 0.0 | 0.0 | 0.00 | 0.00 | 0.00 | 74 | 1013.4 |
| 20260906122458 | 71 | 200 | 0.0 | 0.0 | 0.00 | 0.00 | 0.00 | 75 | 1013.3 |
| 20260906121954 | 71 | 200 | 0.0 | 0.0 | 0.00 | 0.00 | 0.00 | 75 | 1013.1 |
| 20260906121450 | 71 | 200 | 0.0 | 0.0 | 0.00 | 0.00 | 0.00 | 74 | 1013.0 |
| 20260906120946 | 71 | 200 | 0.0 | 0.0 | 0.00 | 0.00 | 0.00 | 74 | 1013.1 |
| 20260906120441 | 72 | 200 | 0.0 | 0.0 | 0.00 | 0.00 | 0.00 | 73 | 1013.3 |
| 20260906115938 | 72 | 200 | 0.0 | 0.0 | 0.00 | 0.00 | 0.00 | 73 | 1012.9 |
| 20260906115433 | 71 | 200 | 0.0 | 0.0 | 0.00 | 0.00 | 0.00 | 74 | 1012.9 |
| 20260906114932 | 71 | 200 | 0.0 | 0.0 | 0.00 | 0.00 | 0.00 | 75 | 1012.9 |
| 20260906114427 | 71 | 200 | 0.0 | 0.0 | 0.00 | 0.00 | 0.00 | 75 | 1012.9 |
| 20260906113923 | 71 | 200 | 0.0 | 0.0 | 0.00 | 0.00 | 0.00 | 75 | 1012.9 |
| 20260906113421 | 71 | 200 | 0.0 | 0.0 | 0.00 | 0.00 | 0.00 | 74 | 1012.9 |
| 20260906112917 | 71 | 200 | 0.0 | 0.0 | 0.00 | 0.00 | 0.00 | 72 | 1013.0 |
| 20260906112413 | 72 | 200 | 0.0 | 0.0 | 0.00 | 0.00 | 0.00 | 73 | 1012.9 |
| 20260906111908 | 72 | 200 | 0.0 | 0.0 | 0.00 | 0.00 | 0.00 | 73 | 1012.9 |
| 20260906111408 | 72 | 200 | 0.0 | 0.0 | 0.00 | 0.00 | 0.00 | 73 | 1012.9 |
| 20260906110903 | 72 | 200 | 0.0 | 0.0 | 0.00 | 0.00 | 0.00 | 73 | 1012.8 |
| 20260906110358 | 72 | 200 | 0.0 | 0.0 | 0.00 | 0.00 | 0.00 | 73 | 1012.5 |
| 20260906105857 | 72 | 200 | 0.0 | 0.0 | 0.00 | 0.00 | 0.00 | 74 | 1012.8 |
| 20260906105353 | 71 | 200 | 0.0 | 0.0 | 0.00 | 0.00 | 0.00 | 74 | 1012.7 |
| 20260906104849 | 71 | 200 | 0.0 | 0.0 | 0.00 | 0.00 | 0.00 | 75 | 1012.7 |
| 20260906104347 | 71 | 200 | 0.0 | 0.0 | 0.00 | 0.00 | 0.00 | 75 | 1012.6 |
| 20260906103846 | 71 | 200 | 0.0 | 0.0 | 0.00 | 0.00 | 0.00 | 74 | 1012.5 |
| 20260906103344 | 71 | 200 | 0.0 | 0.0 | 0.00 | 0.00 | 0.00 | 72 | 1012.7 |
| 20260906102841 | 72 | 200 | 0.0 | 0.0 | 0.00 | 0.00 | 0.00 | 73 | 1012.7 |
| 20260906102339 | 71 | 200 | 0.0 | 0.0 | 0.00 | 0.00 | 0.00 | 74 | 1012.6 |
| 20260906101834 | 72 | 200 | 0.0 | 0.0 | 0.00 | 0.00 | 0.00 | 73 | 1012.7 |
| 20260906101329 | 72 | 200 | 0.0 | 0.0 | 0.00 | 0.00 | 0.00 | 72 | 1012.6 |
| 20260906100825 | 73 | 200 | 0.0 | 0.0 | 0.00 | 0.00 | 0.00 | 71 | 1012.6 |
| 20260906100324 | 73 | 200 | 0.0 | 0.0 | 0.00 | 0.00 | 0.00 | 70 | 1012.5 |
| 20260906095819 | 73 | 200 | 0.0 | 0.0 | 0.00 | 0.00 | 0.00 | 70 | 1012.5 |
| 20260906095315 | 73 | 200 | 0.0 | 0.0 | 0.00 | 0.00 | 0.00 | 71 | 1012.5 |
| 20260906094814 | 72 | 200 | 0.0 | 0.0 | 0.00 | 0.00 | 0.00 | 71 | 1012.2 |
| 20260906094309 | 73 | 200 | 0.0 | 0.0 | 0.00 | 0.00 | 0.00 | 71 | 1012.4 |
| 20260906093806 | 73 | 200 | 0.0 | 0.0 | 0.00 | 0.00 | 0.00 | 70 | 1012.3 |
| 20260906093301 | 73 | 200 | 0.0 | 0.0 | 0.00 | 0.00 | 0.00 | 70 | 1012.3 |
| 20260906092755 | 73 | 200 | 0.0 | 0.0 | 0.00 | 0.00 | 0.00 | 69 | 1012.3 |
| 20260906092250 | 74 | 200 | 0.0 | 0.0 | 0.00 | 0.00 | 0.00 | 69 | 1012.2 |
| 20260906091746 | 74 | 200 | 0.0 | 0.0 | 0.00 | 0.00 | 0.00 | 68 | 1012.2 |
| 20260906091242 | 74 | 200 | 0.0 | 0.0 | 0.00 | 0.00 | 0.00 | 67 | 1012.2 |
| 20260906090738 | 75 | 200 | 2.0 | 1.0 | 0.00 | 0.00 | 0.00 | 67 | 1012.3 |
| 20260906090237 | 75 | 198 | 0.0 | 0.0 | 0.00 | 0.00 | 0.00 | 66 | 1012.3 |
| 20260906085737 | 75 | 199 | 0.0 | 0.0 | 0.00 | 0.00 | 0.00 | 66 | 1012.2 |
| 20260906085236 | 74 | 197 | 0.0 | 0.0 | 0.00 | 0.00 | 0.00 | 67 | 1012.2 |
| 20260906084731 | 73 | 188 | 0.0 | 0.0 | 0.00 | 0.00 | 0.00 | 68 | 1012.2 |
| 20260906084231 | 73 | 172 | 0.0 | 0.0 | 0.00 | 0.00 | 0.00 | 69 | 1012.1 |
| 20260906083726 | 73 | 171 | 0.0 | 0.0 | 0.00 | 0.00 | 0.00 | 68 | 1012.1 |
| 20260906083221 | 73 | 163 | 0.0 | 0.0 | 0.00 | 0.00 | 0.00 | 69 | 1012.4 |
| 20260906082716 | 73 | 163 | 0.0 | 0.0 | 0.00 | 0.00 | 0.00 | 69 | 1012.3 |
| 20260906082211 | 73 | 163 | 0.0 | 0.0 | 0.00 | 0.00 | 0.00 | 68 | 1012.3 |
| 20260906081707 | 73 | 163 | 0.0 | 0.0 | 0.00 | 0.00 | 0.00 | 67 | 1012.2 |
| 20260906081202 | 73 | 163 | 0.0 | 0.0 | 0.00 | 0.00 | 0.00 | 67 | 1012.2 |
| 20260906080658 | 74 | 163 | 0.0 | 0.0 | 0.00 | 0.00 | 0.00 | 65 | 1012.3 |
| 20260906080149 | 74 | 163 | 0.0 | 0.0 | 0.00 | 0.00 | 0.00 | 65 | 1012.4 |
| 20260906075648 | 75 | 163 | 0.0 | 0.0 | 0.00 | 0.00 | 0.00 | 64 | 1012.3 |
| 20260906075142 | 75 | 163 | 0.0 | 0.0 | 0.00 | 0.00 | 0.00 | 64 | 1012.4 |
| 20260906074638 | 75 | 163 | 0.0 | 0.0 | 0.00 | 0.00 | 0.00 | 64 | 1012.4 |
| 20260906074136 | 75 | 163 | 0.0 | 0.0 | 0.00 | 0.00 | 0.00 | 64 | 1012.4 |
| 20260906073631 | 75 | 163 | 0.0 | 0.0 | 0.00 | 0.00 | 0.00 | 63 | 1012.5 |
| 20260906073127 | 75 | 163 | 0.0 | 0.0 | 0.00 | 0.00 | 0.00 | 62 | 1012.6 |
| 20260906072616 | 75 | 163 | 0.0 | 0.0 | 0.00 | 0.00 | 0.00 | 62 | 1012.5 |
| 20260906072112 | 75 | 162 | 0.0 | 0.0 | 0.00 | 0.00 | 0.00 | 63 | 1012.7 |
| 20260906071608 | 75 | 162 | 0.0 | 0.0 | 0.00 | 0.00 | 0.00 | 63 | 1012.9 |
| 20260906071103 | 75 | 162 | 0.0 | 0.0 | 0.00 | 0.00 | 0.00 | 62 | 1012.7 |
| 20260906070600 | 75 | 162 | 0.0 | 0.0 | 0.00 | 0.00 | 0.00 | 62 | 1013.0 |
| 20260906070054 | 75 | 162 | 0.0 | 0.0 | 0.00 | 0.00 | 0.00 | 62 | 1013.0 |
| 20260906065554 | 75 | 162 | 0.0 | 0.0 | 0.00 | 0.00 | 0.00 | 61 | 1012.7 |
| 20260906065050 | 76 | 162 | 0.0 | 0.0 | 0.00 | 0.00 | 0.00 | 60 | 1012.8 |
| 20260906064545 | 76 | 162 | 0.0 | 0.0 | 0.00 | 0.00 | 0.00 | 59 | 1012.9 |
| 20260906064035 | 77 | 162 | 0.0 | 0.0 | 0.00 | 0.00 | 0.00 | 58 | 1012.9 |
| 20260906063530 | 77 | 162 | 0.0 | 0.0 | 0.00 | 0.00 | 0.00 | 57 | 1013.0 |
| 20260906063026 | 78 | 162 | 0.0 | 0.0 | 0.00 | 0.00 | 0.00 | 56 | 1013.1 |
| 20260906062520 | 78 | 177 | 0.0 | 1.0 | 0.00 | 0.00 | 0.00 | 56 | 1012.9 |
| 20260906062015 | 78 | 168 | 2.0 | 3.0 | 0.00 | 0.00 | 0.00 | 56 | 1013.0 |
| 20260906061511 | 79 | 166 | 1.0 | 1.0 | 0.00 | 0.00 | 0.00 | 55 | 1013.0 |
| 20260906061005 | 79 | 166 | 1.0 | 1.0 | 0.00 | 0.00 | 0.00 | 54 | 1013.1 |
| 20260906060502 | 80 | 161 | 2.0 | 1.0 | 0.00 | 0.00 | 0.00 | 53 | 1013.1 |
| 20260906055958 | 80 | 161 | 1.0 | 3.0 | 0.00 | 0.00 | 0.00 | 53 | 1013.3 |
| 20260906055454 | 80 | 159 | 1.0 | 1.0 | 0.00 | 0.00 | 0.00 | 52 | 1013.2 |
| 20260906054949 | 81 | 165 | 2.0 | 3.0 | 0.00 | 0.00 | 0.00 | 51 | 1013.4 |
| 20260906054449 | 81 | 159 | 7.0 | 7.0 | 0.00 | 0.00 | 0.00 | 51 | 1013.2 |
| 20260906053944 | 81 | 154 | 4.0 | 6.0 | 0.00 | 0.00 | 0.00 | 51 | 1013.3 |
| 20260906053441 | 81 | 172 | 4.0 | 4.0 | 0.00 | 0.00 | 0.00 | 50 | 1013.3 |
| 20260906052936 | 81 | 160 | 7.0 | 8.0 | 0.00 | 0.00 | 0.00 | 50 | 1013.3 |
| 20260906052432 | 81 | 185 | 5.0 | 7.0 | 0.00 | 0.00 | 0.00 | 50 | 1013.2 |
| 20260906051929 | 78 | 175 | 5.0 | 6.0 | 0.00 | 0.00 | 0.00 | 53 | 1013.1 |
| 20260906051424 | 77 | 161 | 0.0 | 0.0 | 0.00 | 0.00 | 0.00 | 54 | 1013.1 |
| 20260906050920 | 78 | 161 | 0.0 | 0.0 | 0.00 | 0.00 | 0.00 | 53 | 1013.0 |
| 20260906050419 | 78 | 159 | 0.0 | 0.0 | 0.00 | 0.00 | 0.00 | 53 | 1013.1 |
| 20260906045919 | 78 | 159 | 0.0 | 0.0 | 0.00 | 0.00 | 0.00 | 52 | 1013.1 |
| 20260906045417 | 79 | 159 | 0.0 | 0.0 | 0.00 | 0.00 | 0.00 | 52 | 1012.9 |
| 20260906044914 | 79 | 159 | 0.0 | 0.0 | 0.00 | 0.00 | 0.00 | 52 | 1013.0 |
| 20260906044413 | 79 | 159 | 0.0 | 0.0 | 0.00 | 0.00 | 0.00 | 51 | 1013.1 |
| 20260906043909 | 79 | 159 | 0.0 | 0.0 | 0.00 | 0.00 | 0.00 | 51 | 1013.1 |
| 20260906043405 | 80 | 159 | 0.0 | 0.0 | 0.00 | 0.00 | 0.00 | 49 | 1013.1 |
| 20260906042900 | 80 | 156 | 0.0 | 0.0 | 0.00 | 0.00 | 0.00 | 50 | 1013.1 |
| 20260906042358 | 81 | 154 | 0.0 | 0.0 | 0.00 | 0.00 | 0.00 | 49 | 1013.1 |
| 20260906041855 | 81 | 154 | 0.0 | 0.0 | 0.00 | 0.00 | 0.00 | 48 | 1013.2 |
| 20260906041350 | 82 | 154 | 0.0 | 0.0 | 0.00 | 0.00 | 0.00 | 47 | 1013.1 |
| 20260906040845 | 81 | 157 | 2.0 | 1.0 | 0.00 | 0.00 | 0.00 | 47 | 1013.0 |
| 20260906040341 | 81 | 152 | 1.0 | 1.0 | 0.00 | 0.00 | 0.00 | 48 | 1013.1 |
| 20260906035836 | 80 | 151 | 1.0 | 1.0 | 0.00 | 0.00 | 0.00 | 49 | 1013.0 |
| 20260906035331 | 80 | 150 | 0.0 | 0.0 | 0.00 | 0.00 | 0.00 | 49 | 1012.8 |
| 20260906034826 | 79 | 148 | 0.0 | 0.0 | 0.00 | 0.00 | 0.00 | 49 | 1012.9 |
| 20260906034321 | 79 | 137 | 0.0 | 0.0 | 0.00 | 0.00 | 0.00 | 50 | 1012.7 |
| 20260906033817 | 79 | 137 | 0.0 | 0.0 | 0.00 | 0.00 | 0.00 | 50 | 1012.8 |
| 20260906033316 | 78 | 138 | 0.0 | 0.0 | 0.00 | 0.00 | 0.00 | 50 | 1013.0 |
| 20260906032813 | 79 | 136 | 0.0 | 0.0 | 0.00 | 0.00 | 0.00 | 50 | 1012.8 |
| 20260906032308 | 79 | 136 | 0.0 | 0.0 | 0.00 | 0.00 | 0.00 | 49 | 1012.7 |
| 20260906031803 | 80 | 136 | 0.0 | 0.0 | 0.00 | 0.00 | 0.00 | 48 | 1012.6 |
| 20260906031259 | 80 | 136 | 0.0 | 0.0 | 0.00 | 0.00 | 0.00 | 47 | 1012.5 |
| 20260906030758 | 81 | 136 | 0.0 | 0.0 | 0.00 | 0.00 | 0.00 | 47 | 1012.5 |
| 20260906030254 | 81 | 136 | 0.0 | 0.0 | 0.00 | 0.00 | 0.00 | 46 | 1012.5 |
| 20260906025753 | 82 | 136 | 0.0 | 0.0 | 0.00 | 0.00 | 0.00 | 45 | 1012.4 |
| 20260906025248 | 83 | 136 | 0.0 | 0.0 | 0.00 | 0.00 | 0.00 | 43 | 1012.2 |
| 20260906024747 | 84 | 136 | 0.0 | 0.0 | 0.00 | 0.00 | 0.00 | 42 | 1012.2 |
| 20260906024246 | 84 | 136 | 0.0 | 0.0 | 0.00 | 0.00 | 0.00 | 42 | 1011.9 |
| 20260906023741 | 85 | 137 | 0.0 | 0.0 | 0.00 | 0.00 | 0.00 | 42 | 1011.8 |
| 20260906023236 | 85 | 136 | 0.0 | 0.0 | 0.00 | 0.00 | 0.00 | 41 | 1011.9 |
| 20260906022731 | 85 | 145 | 1.0 | 1.0 | 0.00 | 0.00 | 0.00 | 41 | 1011.9 |
| 20260906022221 | 85 | 140 | 0.0 | 0.0 | 0.00 | 0.00 | 0.00 | 41 | 1011.7 |
| 20260906021717 | 85 | 145 | 1.0 | 1.0 | 0.00 | 0.00 | 0.00 | 41 | 1011.8 |
| 20260906021216 | 85 | 104 | 0.0 | 0.0 | 0.00 | 0.00 | 0.00 | 41 | 1011.5 |
| 20260906020711 | 85 | 132 | 1.0 | 1.0 | 0.00 | 0.00 | 0.00 | 41 | 1011.4 |
| 20260906020205 | 86 | 123 | 0.0 | 0.0 | 0.00 | 0.00 | 0.00 | 41 | 1011.7 |
| 20260906015700 | 86 | 132 | 0.0 | 0.0 | 0.00 | 0.00 | 0.00 | 40 | 1011.3 |
| 20260906015158 | 87 | 127 | 0.0 | 0.0 | 0.00 | 0.00 | 0.00 | 40 | 1011.4 |
| 20260906014653 | 87 | 136 | 0.0 | 0.0 | 0.00 | 0.00 | 0.00 | 39 | 1011.1 |
| 20260906014149 | 88 | 140 | 2.0 | 3.0 | 0.00 | 0.00 | 0.00 | 39 | 1011.0 |
| 20260906013644 | 88 | 150 | 2.0 | 3.0 | 0.00 | 0.00 | 0.00 | 38 | 1011.1 |
| 20260906013139 | 89 | 146 | 2.0 | 3.0 | 0.00 | 0.00 | 0.00 | 38 | 1011.1 |
| 20260906012634 | 89 | 163 | 2.0 | 3.0 | 0.00 | 0.00 | 0.00 | 37 | 1011.0 |
| 20260906012129 | 89 | 127 | 1.0 | 1.0 | 0.00 | 0.00 | 0.00 | 37 | 1011.0 |
| 20260906011624 | 90 | 136 | 2.0 | 1.0 | 0.00 | 0.00 | 0.00 | 36 | 1010.9 |
| 20260906011118 | 90 | 167 | 4.0 | 6.0 | 0.00 | 0.00 | 0.00 | 36 | 1010.9 |
| 20260906010614 | 91 | 117 | 4.0 | 6.0 | 0.00 | 0.00 | 0.00 | 35 | 1010.7 |
| 20260906010110 | 91 | 168 | 2.0 | 3.0 | 0.00 | 0.00 | 0.00 | 35 | 1010.8 |
| 20260906005609 | 91 | 172 | 3.0 | 4.0 | 0.00 | 0.00 | 0.00 | 35 | 1010.6 |
| 20260906005108 | 92 | 159 | 2.0 | 4.0 | 0.00 | 0.00 | 0.00 | 35 | 1010.6 |
| 20260906004603 | 92 | 133 | 2.0 | 3.0 | 0.00 | 0.00 | 0.00 | 34 | 1010.7 |
| 20260906004057 | 93 | 140 | 4.0 | 6.0 | 0.00 | 0.00 | 0.00 | 33 | 1010.8 |
| 20260906003553 | 93 | 160 | 4.0 | 4.0 | 0.00 | 0.00 | 0.00 | 32 | 1010.5 |
| 20260906003048 | 94 | 101 | 7.0 | 8.0 | 0.00 | 0.00 | 0.00 | 32 | 1010.7 |
| 20260906002543 | 94 | 182 | 4.0 | 6.0 | 0.00 | 0.00 | 0.00 | 31 | 1010.4 |
| 20260906002043 | 94 | 146 | 7.0 | 8.0 | 0.00 | 0.00 | 0.00 | 31 | 1010.5 |
| 20260906001533 | 95 | 157 | 2.0 | 3.0 | 0.00 | 0.00 | 0.00 | 30 | 1010.4 |
| 20260906001027 | 95 | 161 | 4.0 | 6.0 | 0.00 | 0.00 | 0.00 | 30 | 1010.5 |
| 20260906000524 | 95 | 142 | 5.0 | 8.0 | 0.00 | 0.00 | 0.00 | 30 | 1010.6 |
| 20260906000024 | 95 | 172 | 5.0 | 7.0 | 0.00 | 0.00 | 0.00 | 29 | 1010.4 |
| 20260905235517 | 95 | 94 | 5.0 | 7.0 | 0.00 | 0.00 | 0.00 | 29 | 1010.5 |
| 20260905235013 | 96 | 171 | 4.0 | 4.0 | 0.00 | 0.00 | 0.00 | 29 | 1010.4 |
| 20260905234508 | 96 | 155 | 10.0 | 13.0 | 0.00 | 0.00 | 0.00 | 28 | 1010.3 |
| 20260905234003 | 96 | 93 | 3.0 | 4.0 | 0.00 | 0.00 | 0.00 | 28 | 1010.6 |
| 20260905233458 | 96 | 122 | 5.0 | 6.0 | 0.00 | 0.00 | 0.00 | 29 | 1010.2 |
| 20260905232956 | 95 | 138 | 3.0 | 4.0 | 0.00 | 0.00 | 0.00 | 29 | 1010.2 |
| 20260905232453 | 97 | 148 | 6.0 | 7.0 | 0.00 | 0.00 | 0.00 | 28 | 1010.1 |
| 20260905231949 | 96 | 60 | 6.0 | 7.0 | 0.00 | 0.00 | 0.00 | 28 | 1010.2 |
| 20260905231444 | 96 | 171 | 5.0 | 6.0 | 0.00 | 0.00 | 0.00 | 29 | 1010.2 |
| 20260905230941 | 96 | 89 | 4.0 | 6.0 | 0.00 | 0.00 | 0.00 | 30 | 1010.1 |
| 20260905230438 | 97 | 105 | 6.0 | 7.0 | 0.00 | 0.00 | 0.00 | 29 | 1010.0 |
| 20260905225937 | 96 | 173 | 2.0 | 4.0 | 0.00 | 0.00 | 0.00 | 30 | 1010.1 |
| 20260905225432 | 96 | 190 | 5.0 | 7.0 | 0.00 | 0.00 | 0.00 | 30 | 1010.1 |
| 20260905224927 | 96 | 138 | 2.0 | 3.0 | 0.00 | 0.00 | 0.00 | 31 | 1010.2 |